Martinsburg, WV

7:54 PM EDT on June 25, 2017 (GMT -0400)
Eastern W Va Regional-Shepherd

Weather History for KMRB - June, 2013

Change the Weather History Date:

Wednesday, June 26, 2013

  Actual Average Record
Temperature  
Mean Temperature 77 °F 73 °F  
Max Temperature 90 °F 85 °F 102 °F (1943)
Min Temperature 64 °F 62 °F 46 °F (1979)
Degree Days  
Heating Degree Days 0 0  
Month to date heating degree days 2 22  
Since 1 June heating degree days 2 22  
Since 1 July heating degree days 4908 5247  
Cooling Degree Days 12 8  
Month to date cooling degree days 185 148  
Year to date cooling degree days 296 205  
Since 1 June cooling degree days 185 148  
Growing Degree Days 26 (Base 50)    
Moisture  
Dew Point 66 °F    
Average Humidity 72    
Maximum Humidity 97    
Minimum Humidity 46    
Precipitation  
Precipitation 0.03 in 0.12 in 2.37 in (1970)
Month to date precipitation 3.26 3.29  
Year to date precipitation 14.52 19.02  
Sea Level Pressure  
Sea Level Pressure 29.89 in    
Wind  
Wind Speed 5 mph (SW)    
Max Wind Speed 18 mph    
Max Gust Speed 21 mph    
Visibility 10 miles    
Events Rain    
T = Trace of Precipitation, MM = Missing Value Source: NWS Daily Summary

Daily Weather History Graph

Daily Weather History Graph

Search for Another Location

Airport or City:

Trip Planner

Search our weather history database for the weather conditions in past years. The results will help you decide how hot, cold, wet, or windy it might be!

Date:

Astronomy

Jun. 26, 2013 Rise Set
Actual Time 5:46 AM EDT 8:42 PM EDT
Civil Twilight 5:14 AM EDT 9:15 PM EDT
Nautical Twilight 4:33 AM EDT 9:56 PM EDT
Astronomical Twilight 3:46 AM EDT 10:43 PM EDT
Moon 11:06 PM EDT (6/26) 9:34 AM EDT (6/26)
Length of Visible Light 16h 00m
Length of Day
14h 56m
Waning Gibbous, 85% of the Moon is Illuminated
Jun 26
Waning Gibbous
Jun 30
Last Quarter
Jul 8
New
Jul 15
First Quarter
Jul 22
Full

Hourly Weather History & Observations

Time (EDT) Temp. Heat Index Dew Point Humidity Pressure Visibility Wind Dir Wind Speed Gust Speed Precip Events Conditions
12:53 AM 66.0 °F - 62.1 °F 87% 29.94 in 10.0 mi Calm Calm - N/A   Clear
1:53 AM 66.0 °F - 62.1 °F 87% 29.94 in 10.0 mi Calm Calm - N/A   Clear
2:53 AM 66.9 °F - 63.0 °F 87% 29.93 in 10.0 mi NW 3.5 mph - N/A   Clear
3:53 AM 69.1 °F - 61.0 °F 75% 29.93 in 10.0 mi Calm Calm - N/A   Clear
4:53 AM 66.0 °F - 62.1 °F 87% 29.93 in 10.0 mi Calm Calm - N/A   Mostly Cloudy
5:53 AM 64.9 °F - 62.1 °F 90% 29.93 in 10.0 mi Calm Calm - N/A   Clear
6:53 AM 66.0 °F - 63.0 °F 90% 29.92 in 10.0 mi SSW 3.5 mph - N/A   Scattered Clouds
7:53 AM 70.0 °F - 64.0 °F 81% 29.92 in 10.0 mi SW 3.5 mph - N/A   Clear
8:53 AM 75.0 °F - 64.0 °F 69% 29.91 in 10.0 mi SW 3.5 mph - N/A   Clear
9:53 AM 78.1 °F - 66.9 °F 68% 29.91 in 10.0 mi South 8.1 mph - N/A   Clear
10:53 AM 82.9 °F 85.4 °F 66.9 °F 58% 29.89 in 10.0 mi Variable 6.9 mph - N/A   Clear
11:53 AM 81.0 °F 83.8 °F 68.0 °F 65% 29.90 in 10.0 mi South 5.8 mph - N/A   Clear
12:53 PM 84.9 °F 89.4 °F 70.0 °F 61% 29.89 in 10.0 mi SW 8.1 mph - N/A   Clear
1:53 PM 88.0 °F 92.9 °F 70.0 °F 55% 29.87 in 10.0 mi Variable 4.6 mph - N/A   Scattered Clouds
2:53 PM 88.0 °F 89.6 °F 64.9 °F 46% 29.86 in 10.0 mi West 15.0 mph 19.6 mph N/A   Mostly Cloudy
3:53 PM 86.0 °F 87.6 °F 64.9 °F 49% 29.84 in 10.0 mi WSW 11.5 mph - N/A   Mostly Cloudy
4:53 PM 77.0 °F - 66.9 °F 71% 29.85 in 8.0 mi SW 9.2 mph - 0.01 in Rain Light Rain
5:53 PM 77.0 °F - 69.1 °F 76% 29.86 in 6.0 mi West 10.4 mph - 0.01 in Rain Light Rain
6:53 PM 79.0 °F - 69.1 °F 72% 29.84 in 10.0 mi West 6.9 mph - 0.01 in   Partly Cloudy
7:53 PM 75.9 °F - 69.1 °F 79% 29.85 in 10.0 mi South 4.6 mph - N/A   Partly Cloudy
8:53 PM 73.9 °F - 68.0 °F 82% 29.85 in 10.0 mi WSW 4.6 mph - N/A   Clear
9:53 PM 73.0 °F - 68.0 °F 84% 29.86 in 10.0 mi South 3.5 mph - N/A   Clear
10:53 PM 70.0 °F - 68.0 °F 93% 29.86 in 10.0 mi Calm Calm - N/A   Clear
11:53 PM 70.0 °F - 66.9 °F 90% 29.84 in 10.0 mi SW 3.5 mph - N/A   Clear